Regional Weather Roundup
Issued by NWS State College, PA

Home | Current Version | Previous Version | Text Only | Print | Product List | Glossary On
Versions: 1 2 3 4 5 6 7 8 9 10 11 12 13 14 15 16 17 18 19 20 21 22 23 24 25 26 27 28 29 30 31 32 33 34 35 36 37 38 39 40 41 42 43 44 45 46 47 48 49 50
000
ASUS41 KCTP 290710
RWRCTP

REGIONAL WEATHER ROUNDUP
NATIONAL WEATHER SERVICE STATE COLLEGE PA
300 AM EDT TUE JUL 29 2014

Note: "fair" indicates few or no clouds below 12,000 feet with no
significant weather and/or obstructions to visibility.

* = STATION THAT DOES NOT REPORT PRECIPITATION /E.G. RAIN...SNOW...ETC/
    THUNDER OR FOG.

PAZ002>004-007>009-013>016-020>023-029>032-290800-
WESTERN PENNSYLVANIA

CITY           SKY/WX    TMP DP  RH WIND       PRES   REMARKS
ERIE           CLOUDY    60  50  69 NW5       29.92S
MEADVILLE      CLOUDY    53  48  83 W5        29.93S
FRANKLIN*      CLOUDY    52  46  82 CALM      29.94F
NEW CASTLE       N/A     54  50  86 CALM      29.96S
BEAVER COUNTY  NOT AVBL
BUTLER*        PTCLDY    52  48  87 W3        29.96S
PITTSBURGH INT PTCLDY    54  51  90 SW5       29.95S
PITTSBURGH     CLEAR     53  50  89 W8        29.95R
INDIANA*       CLOUDY    54  50  87 W5        29.97S
LATROBE        CLEAR     52  52 100 CALM      29.95F
WASHINGTON CO* CLOUDY    54  48  82 CALM      29.97S
$$

PAZ004>006-010>012-017>019-024>028-033>037-041-042-045-046-049>053-290800-
CENTRAL PENNSYLVANIA

CITY           SKY/WX    TMP DP  RH WIND       PRES   REMARKS
BRADFORD       CLOUDY    53  49  86 NW6       29.89F
DUBOIS         CLOUDY    54  51  90 W6        29.90F
CLEARFIELD     CLOUDY    56  52  86 W6        29.90S
JOHNSTOWN      CLEAR     49  46  90 W9        29.93F
ALTOONA        MOCLDY    55  49  80 W8        29.91S
STATE COLLEGE  MOCLDY    57  55  91 W6        29.87S
WILLIAMSPORT   CLOUDY    61  55  81 VRB7      29.83S
SELINSGROVE    CLOUDY    60  57  89 CALM      29.84F
FT INDIANTOWN  CLEAR     61  56  82 N1        29.83S
CAPITAL CITY   PTCLDY    61  55  81 W5        29.84S
HARRISBURG     PTCLDY    64  54  69 N3        29.83S
YORK           CLEAR     59  56  89 W3        29.84S
$$

PAZ038>040-043-044-047-048-054-055-060>062-067>071-290800-
EASTERN PENNSYLVANIA

CITY           SKY/WX    TMP DP  RH WIND       PRES   REMARKS
SCRANTON       CLOUDY    59  55  87 CALM      29.82R
MOUNT POCONO   MOCLDY    55  51  86 NW10      29.81S
ALLENTOWN      CLEAR     62  53  72 W3        29.80S
QUAKERTOWN*    SUNNY     61  55  82 CALM      29.81S
READING        PTCLDY    62  55  77 NW7       29.81R
LANCASTER      CLEAR     60  55  83 W7        29.83S
COATESVILLE    MOSUNNY   61  61 100 NW9       29.83R
POTTSTOWN      CLEAR     61  55  81 CALM      29.83R
BLUE BELL      CLEAR     63  57  82 CALM      29.80R
DOYLESTOWN     CLEAR     61  55  81 NW6       29.79S
WILLOW GROVE   NOT AVBL
NORTH PHILA    CLEAR     65  54  67 NW5       29.81R
PHILADELPHIA   CLEAR     68  55  63 NW8       29.81R
$$


USA.gov is the U.S. government's official web portal to all federal, state and local government web resources and services.